Date String (YYYY-MM-DD hh:mm:ss) UTC,Instrument flags,Ambient pressure (hPa),Sample flow (lpm),Bypass flow (lpm),Sample temperature (°C),Ambient temperature (°C),ASC tube jacket temperature (°C),LED temperature (°C),Box temperature (°C),Sample RH (%),Span deviation,Mass concentration (μg/m³),Mass concentration (μg/m³),Mass concentration (μg/m³)
DateTimeUTC,F1_M11,P_M11,Q1_M11,Q2_M11,T1_M11,T2_M11,T3_M11,T4_M11,T5_M11,U1_M11,ZSPAN_M11,X2_M11,X0_M11,X1_M11
2022-01-23 17:00:00,,0828.6,4.98,0.00,23.3,22.7,00.0,32.1,25.2,09.2,0000.0,0000.84,0001.92,0000.67
2022-01-23 17:01:00,,0828.6,5.01,0.00,23.3,22.7,00.0,32.1,25.2,08.9,0000.0,0000.85,0002.56,0000.68
2022-01-23 17:02:00,,0828.6,5.00,0.00,23.4,22.7,00.0,32.2,25.2,09.0,0000.0,0000.84,0002.55,0000.67
2022-01-23 17:03:00,,0828.8,4.99,0.00,23.4,22.8,00.0,32.2,25.2,09.0,0000.0,0000.84,0002.57,0000.66
2022-01-23 17:04:00,,0828.9,5.01,0.00,23.4,22.8,00.0,32.2,25.3,09.1,0000.0,0000.83,0002.33,0000.66
2022-01-23 17:05:00,,0828.7,4.99,0.00,23.4,22.8,00.0,32.2,25.3,09.1,0000.0,0000.85,0002.32,0000.66
2022-01-23 17:06:00,,0828.5,5.00,0.00,23.4,22.8,00.0,32.2,25.3,08.9,0000.0,0000.82,0002.15,0000.65
2022-01-23 17:07:00,,0828.6,5.01,0.00,23.5,22.9,00.0,32.3,25.3,08.8,0000.0,0000.81,0002.01,0000.64
2022-01-23 17:08:00,,0828.8,5.00,0.00,23.5,22.9,00.0,32.3,25.4,08.9,0000.0,0000.80,0001.99,0000.63
2022-01-23 17:09:00,,0829.0,5.00,0.00,23.5,22.9,00.0,32.3,25.4,09.0,0000.0,0000.79,0001.98,0000.61
2022-01-23 17:10:00,,0829.0,4.99,0.00,23.5,22.9,00.0,32.3,25.4,09.0,0000.0,0000.77,0001.91,0000.60
2022-01-23 17:11:00,,0828.9,5.02,0.00,23.5,23.0,00.0,32.3,25.5,08.9,0000.0,0000.75,0001.83,0000.59
2022-01-23 17:12:00,,0828.8,4.99,0.00,23.6,23.0,00.0,32.4,25.5,08.9,0000.0,0000.73,0001.04,0000.59
2022-01-23 17:13:00,,0829.0,5.00,0.00,23.6,23.0,00.0,32.4,25.5,09.0,0000.0,0000.74,0001.07,0000.58
2022-01-23 17:14:00,,0828.9,5.00,0.00,23.6,23.0,00.0,32.4,25.5,09.0,0000.0,0000.74,0001.33,0000.60
2022-01-23 17:15:00,,0828.8,4.99,0.00,23.7,23.0,00.0,32.4,25.5,09.3,0000.0,0000.75,0002.32,0000.60
2022-01-23 17:16:00,,0828.7,5.01,0.00,23.7,23.0,00.0,32.5,25.6,09.1,0000.0,0000.75,0002.67,0000.62
2022-01-23 17:17:00,,0828.8,4.99,0.00,23.7,23.1,00.0,32.5,25.6,09.2,0000.0,0000.77,0002.72,0000.63
2022-01-23 17:18:00,,0828.8,4.98,0.00,23.8,23.1,00.0,32.5,25.6,09.3,0000.0,0000.77,0002.82,0000.65
2022-01-23 17:19:00,,0828.7,5.00,0.00,23.8,23.1,00.0,32.5,25.7,09.2,0000.0,0000.80,0003.03,0000.67
2022-01-23 17:20:00,,0828.5,5.01,0.00,23.8,23.1,00.0,32.6,25.7,09.0,0000.0,0000.81,0003.31,0000.68
2022-01-23 17:21:00,,0828.5,4.99,0.00,23.8,23.2,00.0,32.6,25.6,09.1,0000.0,0000.87,0003.41,0000.70
2022-01-23 17:22:00,,0828.7,5.01,0.00,23.8,23.2,00.0,32.6,25.7,09.2,0000.0,0000.91,0003.53,0000.71
2022-01-23 17:23:00,,0829.0,4.99,0.00,23.9,23.2,00.0,32.6,25.7,09.5,0000.0,0000.94,0003.60,0000.72
2022-01-23 17:24:00,,0829.1,5.00,0.00,23.9,23.2,00.0,32.7,25.8,09.5,0000.0,0000.94,0003.74,0000.72
2022-01-23 17:25:00,,0829.0,5.00,0.00,23.9,23.2,00.0,32.7,25.8,09.2,0000.0,0000.93,0004.05,0000.72
2022-01-23 17:26:00,,0829.0,5.00,0.00,23.9,23.2,00.0,32.7,25.9,09.1,0000.0,0000.96,0003.45,0000.72
2022-01-23 17:27:00,,0829.0,5.01,0.00,23.9,23.3,00.0,32.7,25.9,08.9,0000.0,0000.96,0002.70,0000.72
2022-01-23 17:28:00,,0829.0,4.99,0.00,24.0,23.3,00.0,32.7,25.9,08.5,0000.0,0001.00,0002.75,0000.71
2022-01-23 17:29:00,,0828.7,5.01,0.00,24.0,23.3,00.0,32.7,25.9,08.8,0000.0,0001.00,0002.62,0000.70
2022-01-23 17:30:00,,0828.4,4.99,0.00,24.0,23.3,00.0,32.8,25.9,09.0,0000.0,0001.01,0002.60,0000.70
2022-01-23 17:31:00,,0828.5,5.01,0.00,24.0,23.4,00.0,32.8,26.0,08.5,0000.0,0001.00,0002.24,0000.69
2022-01-23 17:32:00,,0828.4,4.99,0.00,24.1,23.4,00.0,32.8,26.0,08.4,0000.0,0000.96,0002.16,0000.69
2022-01-23 17:33:00,,0828.5,4.99,0.00,24.1,23.4,00.0,32.8,26.0,08.7,0000.0,0000.93,0002.06,0000.69
2022-01-23 17:34:00,,0828.5,5.02,0.00,24.1,23.4,00.0,32.9,26.0,07.7,0000.0,0000.91,0002.01,0000.68
2022-01-23 17:35:00,,0828.5,4.99,0.00,24.1,23.4,00.0,32.9,26.1,07.6,0000.0,0000.92,0001.88,0000.68
2022-01-23 17:36:00,,0828.4,4.99,0.00,24.2,23.4,00.0,32.9,26.1,08.1,0000.0,0000.91,0001.36,0000.68
2022-01-23 17:37:00,,0828.4,5.02,0.00,24.2,23.5,00.0,32.9,26.1,07.8,0000.0,0000.89,0001.30,0000.67
2022-01-23 17:38:00,,0828.3,5.00,0.00,24.2,23.5,00.0,33.0,26.1,08.2,0000.0,0000.89,0001.33,0000.67
2022-01-23 17:39:00,,0828.4,5.01,0.00,24.2,23.5,00.0,33.0,26.1,08.4,0000.0,0000.84,0001.26,0000.67
2022-01-23 17:40:00,,0828.4,5.00,0.00,24.2,23.5,00.0,33.0,26.1,08.9,0000.0,0000.85,0001.29,0000.67
2022-01-23 17:41:00,,0828.3,4.99,0.00,24.2,23.5,00.0,33.0,26.1,09.3,0000.0,0000.88,0001.40,0000.68
2022-01-23 17:42:00,,0828.2,5.00,0.00,24.2,23.5,00.0,33.0,26.1,09.4,0000.0,0000.89,0001.42,0000.70
2022-01-23 17:43:00,,0828.3,5.01,0.00,24.3,23.5,00.0,33.0,26.2,09.7,0000.0,0000.91,0001.43,0000.71
2022-01-23 17:44:00,,0828.2,4.99,0.00,24.3,23.5,00.0,33.1,26.2,09.6,0000.0,0000.95,0001.50,0000.72
2022-01-23 17:45:00,,0828.2,5.01,0.00,24.3,23.6,00.0,33.1,26.2,09.5,0000.0,0000.95,0001.51,0000.73
2022-01-23 17:46:00,,0828.3,5.00,0.00,24.3,23.6,00.0,33.1,26.2,09.5,0000.0,0001.00,0001.70,0000.76
2022-01-23 17:47:00,,0828.3,5.01,0.00,24.3,23.6,00.0,33.1,26.2,09.5,0000.0,0001.07,0001.92,0000.79
2022-01-23 17:48:00,,0828.3,4.99,0.00,24.3,23.6,00.0,33.1,26.3,09.5,0000.0,0001.15,0002.10,0000.83
2022-01-23 17:49:00,,0828.2,5.00,0.00,24.3,23.6,00.0,33.2,26.2,09.4,0000.0,0001.20,0002.24,0000.86
2022-01-23 17:50:00,,0828.1,5.01,0.00,24.3,23.6,00.0,33.2,26.3,09.5,0000.0,0001.23,0002.27,0000.89
2022-01-23 17:51:00,,0828.1,4.99,0.00,24.3,23.6,00.0,33.2,26.3,09.6,0000.0,0001.24,0002.27,0000.92
2022-01-23 17:52:00,,0828.1,5.02,0.00,24.4,23.6,00.0,33.2,26.3,09.5,0000.0,0001.24,0002.26,0000.94
2022-01-23 17:53:00,,0828.2,5.00,0.00,24.4,23.7,00.0,33.2,26.3,09.4,0000.0,0001.26,0002.40,0000.95
2022-01-23 17:54:00,,0828.1,5.02,0.00,24.4,23.7,00.0,33.2,26.3,09.4,0000.0,0001.29,0003.33,0000.95
2022-01-23 17:55:00,,0828.1,4.99,0.00,24.4,23.7,00.0,33.2,26.3,09.5,0000.0,0001.30,0003.89,0000.97
2022-01-23 17:56:00,,0828.2,5.00,0.00,24.4,23.7,00.0,33.3,26.3,09.5,0000.0,0001.31,0004.49,0000.98
2022-01-23 17:57:00,,0828.2,5.01,0.00,24.5,23.7,00.0,33.3,26.4,09.5,0000.0,0001.27,0004.34,0000.97
2022-01-23 17:58:00,,0828.1,4.99,0.00,24.5,23.8,00.0,33.3,26.4,09.2,0000.0,0001.24,0004.21,0000.96
2022-01-23 17:59:00,,0828.1,5.00,0.00,24.5,23.8,00.0,33.3,26.4,08.9,0000.0,0001.18,0004.32,0000.94
